Location: Newark
(12.5331°N, 56.4669°W)
Time: 01:53:28
(UTC+00:00)

LightSail 2 - Pass Details

Date: 04 February 2020
Orbit: 699 x 722 km, 24.0° (Epoch: 21 February)

Event Time Altitude Azimuth Distance (km) Brightness Sun altitude
Rises 23:02:02 0° 256° (WSW) 3,062 10.2 -18.2°
Reaches altitude 10° 23:07:08 10° 212° (SSW) 2,149 8.2 -19.4°
Maximum altitude 23:07:40 10° 206° (SSW) 2,140 8.1 -19.5°
Drops below altitude 10° 23:08:11 10° 200° (SSW) 2,150 8.0 -19.6°
Sets 23:13:20 0° 156° (SSE) 3,075 8.3 -20.9°
